Aswan, Egypt

11:10 AM EET on May 27, 2018 (GMT +0200)
Aswan

Weather History for HESN - February, 2013

Change the Weather History Date:

Sunday, February 17, 2013

  Actual Average Record
Temperature  
Mean Temperature 63 °F -  
Max Temperature 76 °F 79 °F 94 °F (2016)
Min Temperature 50 °F 55 °F 44 °F (2017)
Degree Days  
Heating Degree Days 2    
Growing Degree Days 13 (Base 50)    
Moisture  
Dew Point 27 °F    
Average Humidity 24    
Maximum Humidity 36    
Minimum Humidity 4    
Precipitation  
Precipitation 0.00 in 0.00 in - ()
Sea Level Pressure  
Sea Level Pressure 29.98 in    
Wind  
Wind Speed 8 mph ()    
Max Wind Speed 14 mph    
Max Gust Speed -    
Visibility 6.0 miles    
Events      
Averages and records for this station are not official NWS values.
T = Trace of Precipitation, MM = Missing Value Source: Averaged Metar Reports

Daily Weather History Graph

Daily Weather History Graph

Search for Another Location

Airport or City:

Astronomy

Feb. 17, 2013 Rise Set
Actual Time 6:20 AM EET 5:45 PM EET
Civil Twilight 5:57 AM EET 6:08 PM EET
Nautical Twilight 5:31 AM EET 6:35 PM EET
Astronomical Twilight 5:04 AM EET 7:01 PM EET
Moon 10:49 AM EET (2/17) No Moon Set
Length of Visible Light 12h 10m
Length of Day
11h 24m
Waxing Crescent, 46% of the Moon is Illuminated
Feb 17
Waxing Crescent
Feb 17
First Quarter
Feb 25
Full
Mar 4
Last Quarter
Mar 11
New

Hourly Weather History & Observations

Time (EET) Temp. Dew Point Humidity Pressure Visibility Wind Dir Wind Speed Gust Speed Precip Events Conditions
12:00 AM 57.2 °F 24.8 °F 29% 30.04 in - North 6.9 mph - N/A   Clear
1:00 AM 55.4 °F 24.8 °F 31% 30.01 in - North 6.9 mph - N/A   Clear
2:00 AM 54 °F 25 °F 20% 30.02 in 6 mi North 6.9 mph - -  
2:00 AM 53.6 °F 24.8 °F 33% 30.01 in - North 6.9 mph - N/A   Clear
3:00 AM 51.8 °F 24.8 °F 35% 30.01 in - North 5.8 mph - N/A   Clear
4:00 AM 51.8 °F 24.8 °F 35% 30.01 in - North 5.8 mph - N/A   Clear
5:00 AM 51.8 °F 24.8 °F 35% 30.01 in - North 10.4 mph - N/A   Clear
6:00 AM 51.8 °F 24.8 °F 35% 30.01 in - North 9.2 mph - N/A   Clear
7:00 AM 51.8 °F 24.8 °F 35% 30.01 in - North 8.1 mph - N/A   Clear
8:00 AM 55 °F 28 °F 23% 30.04 in 6 mi North 10.4 mph - -   Partly Cloudy
8:00 AM 55.4 °F 28.4 °F 36% 30.01 in - North 10.4 mph - N/A   Clear
9:00 AM 59.0 °F 28.4 °F 31% 30.04 in - North 13.8 mph - N/A   Clear
10:00 AM 167.0 °F 30.2 °F 4% 30.04 in - North 12.7 mph - N/A   Clear
11:00 AM 68.0 °F 32.0 °F 26% 30.01 in - NNE 9.2 mph - N/A   Clear
1:00 PM 73.4 °F 32.0 °F 22% 29.95 in - North 9.2 mph - N/A   Clear
2:00 PM 74 °F 30 °F 11% 29.92 in 6 mi North 11.5 mph - -   Clear
2:00 PM 73.4 °F 30.2 °F 20% 29.92 in - North 11.5 mph - N/A   Clear
3:00 PM 75.2 °F 28.4 °F 18% 29.92 in - North 10.4 mph - N/A   Clear
4:00 PM 75.2 °F 28.4 °F 18% 29.92 in - North 10.4 mph - N/A   Clear
5:00 PM 75.2 °F 24.8 °F 15% 29.92 in - NNW 10.4 mph - N/A   Clear
6:00 PM 71.6 °F 21.2 °F 15% 29.92 in - NNW 9.2 mph - N/A   Clear
7:00 PM 69.8 °F 19.4 °F 15% 29.95 in - NNW 9.2 mph - N/A   Clear
8:00 PM 66 °F 24 °F 10% 29.95 in 6 mi North 6.9 mph - -  
8:00 PM 66.2 °F 23.0 °F 19% 29.95 in - North 6.9 mph - N/A   Clear
9:00 PM 62.6 °F 32.0 °F 32% 29.98 in - North 6.9 mph - N/A   Clear
11:00 PM 62.6 °F 30.2 °F 30% 29.98 in - North 6.9 mph - N/A   Clear